Location: *
(1.3500°S, 147.5000°W)
Time: 00:55:12
(UTC+00:00)

Envisat - Pass Details

Date: 29 June 2021
Orbit: 764 x 766 km, 98.2° (Epoch: 30 July)

Event Time Altitude Azimuth Distance (km) Brightness Sun altitude
Rises 15:24:13 0° 353° (N) 3,212 6.4 -7.3°
Reaches altitude 10° 15:26:45 10° 343° (NNW) 2,289 5.6 -6.7°
Maximum altitude 15:31:08 30° 282° (WNW) 1,332 3.9 -5.7°
Drops below altitude 10° 15:35:33 10° 221° (SW) 2,299 4.9 -4.7°
Sets 15:38:06 0° 211° (SSW) 3,227 5.7 -4.1°
